Regional Weather Roundup
Issued by NWS

Home | Current Version | Previous Version | Text Only | Print | Product List | Glossary Off
Versions: 1 2 3 4 5 6 7 8 9 10 11 12 13 14 15 16 17 18 19 20 21 22 23 24 25 26 27 28 29 30 31 32 33 34 35 36 37 38 39 40 41 42 43 44 45 46 47 48 49 50

000
ASUS45 KPSR 241410
RWRAZ

ARIZONA REGIONAL HOURLY WEATHER ROUNDUP
NATIONAL WEATHER SERVICE PHOENIX AZ
700 AM MST FRI APR 24 2015

NOTE: FAIR INDICATES FEW OR NO CLOUDS BELOW 12,000 FEET WITH NO
SIGNIFICANT WEATHER AND/OR OBSTRUCTIONS TO VISIBILITY.

AZZ001>003-036-241500-
NORTHWEST ARIZONA

CITY           SKY/WX    TMP DP  RH WIND       PRES   REMARKS
BULLHEAD CITY  SUNNY     61  41  48 CALM      29.82R
KINGMAN        SUNNY     50  40  68 SW3       29.87R
$$

AZZ004>008-015-016-018-241500-
NORTH CENTRAL ARIZONA

CITY           SKY/WX    TMP DP  RH WIND       PRES   REMARKS
GRAND CANYON   CLOUDY    33  22  63 CALM      29.94R
WILLIAMS       SUNNY     37  27  65 S6        30.01R WCI  33
PRESCOTT       MOSUNNY   46  35  65 SE8       29.94R
FLAGSTAFF      MOSUNNY   36  29  75 SW8       29.96R WCI  30
PAYSON         CLOUDY    46  36  66 S3        29.97R
PAGE           SUNNY     55  30  38 CALM      29.84R
$$

AZZ009>014-017-241500-
NORTHEAST ARIZONA

CITY           SKY/WX    TMP DP  RH WIND       PRES   REMARKS
WINSLOW        MOSUNNY   49  32  52 SW14      29.92R
SAINT JOHNS    MOSUNNY   47  33  58 SW13      29.93R
WINDOW ROCK    CLOUDY    37  32  82 CALM      29.94R
SHOW LOW       SUNNY     41  27  56 S13       29.98R
$$

AZZ023-241500-
GREATER PHOENIX AREA

CITY           SKY/WX    TMP DP  RH WIND       PRES   REMARKS
PHOENIX        PTSUNNY   62  46  55 SE8       29.88R
BUCKEYE        PTSUNNY   61  50  67 SE3       29.90R
GLENDALE       PTSUNNY   63  48  59 SW3       29.90R
LUKE AFB       MOSUNNY   63  49  60 SW7       29.88R
DEER VALLEY    PTSUNNY   61  43  51 SE12      29.90R
SCOTTSDALE     CLOUDY    62  43  49 E8        29.92R
MESA-FALCON    PTSUNNY   59  43  55 E12       29.91R
MESA-GATEWAY   PTSUNNY   57  45  62 SE10      29.73F
CHANDLER       PTSUNNY   61  46  59 S12       29.91R
$$

AZZ027-028-241500-
SOUTHWEST MARICOPA COUNTY AND PINAL COUNTY

CITY           SKY/WX    TMP DP  RH WIND       PRES   REMARKS
CASA GRANDE    PTSUNNY   61  46  59 S9        29.91R
GILA BEND      FAIR      62  49  62 S9        29.89R
$$

AZZ503-504-507>509-241500-
SOUTHEAST ARIZONA

CITY           SKY/WX    TMP DP  RH WIND       PRES   REMARKS
TUCSON         MOSUNNY   58  43  57 S13       29.98R
DAVIS-MONTHAN  MOSUNNY   58  44  59 SW8       29.96R
RYAN FIELD       N/A     61  45  55 SE8       29.97R
NOGALES        MOSUNNY   49  39  68 S7        30.00R
SIERRA VISTA   SUNNY     48  36  62 N7        30.01R HAZE
DOUGLAS        SUNNY     49  39  68 SW10      30.01R
SAFFORD        SUNNY     57  36  45 NW17      29.92R
$$

AZZ020-021-025-026-031-241500-
SOUTHWEST ARIZONA

CITY           SKY/WX    TMP DP  RH WIND       PRES   REMARKS
YUMA           MOSUNNY   62  47  57 SE5       29.88R
$$

CAZ031-033-041-043-047-048-061-241500-
SOUTHERN CALIFORNIA

CITY           SKY/WX    TMP DP  RH WIND       PRES   REMARKS
DOWNTOWN L.A.  PTCLDY    59  51  75 CALM      29.95R
L.A. AIRPORT   MOCLDY    58  52  80 S5        29.95R
SAN DIEGO      MOCLDY    62  49  62 S7        29.98R
BURBANK        MOCLDY    58  48  69 CALM      29.94R
ONTARIO        MOCLDY    56  50  80 W5        29.95R
RIVERSIDE      MOCLDY    57  51  80 W5        29.96R
PALM SPRINGS   SUNNY     62  48  60 CALM      29.85R
EL CENTRO NAS  MOSUNNY   65  47  52 W16       29.88R
IMPERIAL       SUNNY     62  49  62 W9        29.86R
BLYTHE         SUNNY     62  49  62 S10       29.84R
NEEDLES        SUNNY     63  42  46 CALM      29.81R
$$

NVZ020-UTZ003-241500-
SOUTHERN NEVADA-UTAH

CITY           SKY/WX    TMP DP  RH WIND       PRES   REMARKS
LAS VEGAS      MOSUNNY   61  40  45 S13       29.74R
SALT LAKE CITY MOSUNNY   54  35  48 S9        29.71F
$$

NMZ009-TXZ055-241500-
NEW MEXICO-WEST TEXAS

CITY           SKY/WX    TMP DP  RH WIND       PRES   REMARKS
ALBUQUERQUE    LGT RAIN  49  36  61 S6        29.94S
EL PASO        PTSUNNY   59  42  53 NW7       29.94R
$$


........................KEY........................
SKY/WX - SKY CONDITION/WEATHER
TMP    - TEMPERATURE IN FAHRENHEIT
DP     - DEW POINT IN FAHRENHEIT
RH     - RELATIVE HUMIDITY IN PERCENT
WIND   - DIRECTION AND SPEED IN MILES PER HOUR (MPH)
VRB    - VARIABLE WIND DIRECTION
PRES   - MEAN SEA LEVEL PRESSURE IN INCHES OF MERCURY
         F - FALLING PRESSURE   R - RISING PRESSURE
         S - STEADY PRESSURE
VSB    - VISIBILITY IN MILES
HX     - HEAT INDEX IN FAHRENHEIT
WCI    - WIND CHILL INDEX IN FAHRENHEIT
TC     - TEMPERATURE IN CELSIUS WHICH IS ALSO KNOWN AS
         TEMPERATURE IN CENTIGRADE
AFB    - AIR FORCE BASE
         LUKE AFB IS LUKE AIR FORCE BASE
         DAVIS-MONTHAN IS DAVIS-MONTHAN AIR FORCE BASE
NAS    - NAVAL AIR STATION
         EL CENTRO NAS IS EL CENTRO NAVAL AIR STATION
N/A    - NOT AVAILABLE




USA.gov is the U.S. government's official web portal to all federal, state and local government web resources and services.